Regional Weather Roundup
Issued by NWS

Home | Current Version | Previous Version | Graphics & Text | Print | Product List | Glossary On
Versions: 1 2 3 4 5 6 7 8 9 10 11 12 13 14 15 16 17 18 19 20 21 22 23 24 25 26 27 28 29 30 31 32 33 34 35 36 37 38 39 40 41 42 43 44 45 46 47 48 49 50
000
ASUS43 KMPX 262201
RWRMN
WEATHER ROUNDUP FOR MINNESOTA
NATIONAL WEATHER SERVICE TWIN CITIES/CHANHASSEN MN
500 PM CDT TUE MAY 26 2015


NOTE: "FAIR" INDICATES FEW OR NO CLOUDS BELOW 12,000 FEET WITH NO
SIGNIFICANT WEATHER AND/OR OBSTRUCTIONS TO VISIBILITY. N/A MEANS
CURRENT SKY AND/OR WEATHER CONDITIONS ARE NOT AVAILABLE.

MNZ060>063-068>070-262300-
   Twin Cities Metro

CITY           SKY/WX    TMP DP  RH WIND       PRES   REMARKS
TWIN CITIES    LGT RAIN  59  57  93 N12       29.77F
ST PAUL        RAIN      58  57  97 NW7       29.78R FOG
CRYSTAL        LGT RAIN  58  56  93 N8        29.77S
BLAINE         LGT RAIN  59  57  94 N10       29.78S FOG
LAKEVILLE      LGT RAIN  57  55  94 N9        29.77S
EDEN PRAIRIE   LGT RAIN  58  56  93 N7        29.77S FOG
SOUTH ST PAUL  LGT RAIN  59  57  96 N7        29.77S
LAKE ELMO      RAIN      59  57  94 N9        29.78S
$$
MNZ001>005-007-008-013>017-022>024-027-028-262300-
   Northwest Minnesota

CITY           SKY/WX    TMP DP  RH WIND       PRES   REMARKS
BEMIDJI        CLOUDY    72  51  46 CALM      29.79F
HALLOCK        MOSUNNY   82  43  24 NE3       29.72F
ROSEAU         MOSUNNY   73  50  43 SW10G17   29.75S
WARROAD        MOSUNNY   75  55  50 W6        29.75R
THIEF RVR FALL MOSUNNY   81  48  32 SW5       29.76F
CROOKSTON      MOSUNNY   79  55  44 SE9       29.74F
FOSSTON        PTSUNNY   77  52  41 S9        29.79F
DETROIT LAKES  CLOUDY    73  50  43 SW3       29.81F
MOORHEAD       PTSUNNY   73  55  53 S7        29.79S
PARK RAPIDS    CLOUDY    73  49  42 CALM      29.79F
MAHNOMEN       FAIR      74  55  51 SW7       29.79F
$$
MNZ006-009>011-018-025>026-262300-
   North Central Minnesota

CITY           SKY/WX    TMP DP  RH WIND       PRES   REMARKS
BAUDETTE       SUNNY     78  50  37 S7        29.75F
FLAG ISLAND    SUNNY     70  52  52 SE6       29.73F
INTL FALLS     PTSUNNY   77  48  35 CALM      29.77S
WASKISH        PTSUNNY   73  55  53 CALM      29.78F
BIG FORK       CLOUDY   N/A N/A N/A CALM      29.79S
LONGVILLE      CLOUDY    72  52  49 CALM      29.79F
GRAND RAPIDS   CLOUDY    70  50  49 CALM      29.80F
CRANE LAKE     CLOUDY    72  48  43 CALM      29.80S
ORR            CLOUDY    72  46  40 CALM      29.77S
COOK           CLOUDY    70  50  49 CALM      29.79F
WALKER         FAIR      69  51  52 CALM      29.80S
$$
MNZ012-019>021-037-262300-
   Northeast Minnesota

CITY           SKY/WX    TMP DP  RH WIND       PRES   REMARKS
DULUTH         CLOUDY    62  51  67 E10       29.81R
HIBBING        CLOUDY    69  51  52 SE6       29.80S
EVELETH        CLOUDY    68  48  49 S3        29.81F
DULUTH HARBOR  CLOUDY    52  50  93 E6        29.82S
TWO HARBORS    CLOUDY    63  55  77 SE8       29.80S
GRAND MARAIS     N/A     54  51  90 CALM      29.81F
G MARAIS ARPRT CLOUDY    59  48  67 E6        29.83S
$$
MNZ029>031-032-039>041-046>048-054>057-064-262300-
   West Central Minnesota

CITY           SKY/WX    TMP DP  RH WIND       PRES   REMARKS
FERGUS FALLS   CLOUDY    72  54  53 CALM      29.79F
WHEATON        CLOUDY    70  54  56 W3        29.82F
MORRIS         CLOUDY    72  52  49 NE3       29.80F
ALEXANDRIA     CLOUDY    69  51  52 NE8       29.83R
ELBOW LAKE     FAIR      71  52  52 NE5       29.81S
WADENA         CLOUDY    72  52  49 CALM      29.80S
GLENWOOD       CLOUDY    68  54  60 NE8       29.82S
APPLETON       CLOUDY    72  52  49 N9        29.81S
BENSON         CLOUDY    70  52  52 E5        29.81S
ORTONVILLE     CLOUDY    70  54  56 NW7       29.82S
MADISON        CLOUDY    70  52  52 N8        29.81S
WILLMAR        FAIR      63  55  77 NE6       29.82F
$$
MNZ033>034-036-042>043-049>051-058-059-262300-
   Central Minnesota

CITY           SKY/WX    TMP DP  RH WIND       PRES   REMARKS
ST CLOUD       CLOUDY    61  55  81 E5        29.80S
SAUK CENTRE    FAIR      65  56  70 E5        29.81S
PAYNESVILLE    CLOUDY    59  54  83 N5        29.81F
AITKIN         CLOUDY    68  52  56 E7        29.79F
PINE RIVER     CLOUDY    70  55  60 SE6       29.83F
BRAINERD       CLOUDY    66  53  63 E6        29.80F
STAPLES        CLOUDY    70  50  49 SE5       29.80S
LONG PRAIRIE   FAIR      64  52  63 N7        29.81S
LITTLE FALLS   CLOUDY    64  54  68 E5        29.81S
LITCHFIELD     CLOUDY    61  59  94 NE3       29.81S
BUFFALO        RAIN      57  55  91 N5        29.81S
MAPLE LAKE     RAIN      58  57  96 N6        29.82S
$$
MNZ037-044-045-052-053-262300-
   East Central Minnesota

CITY           SKY/WX    TMP DP  RH WIND       PRES   REMARKS
PRINCETON      LGT RAIN  59  55  88 N6        29.80F
MORA           LGT RAIN  59  52  77 CALM      29.82S
CAMBRIDGE      RAIN      59  52  77 N5        29.78F
RUSH CITY      CLOUDY    57  55  93 CALM      29.80S
MOOSE LAKE     CLOUDY    61  55  82 NE8       29.79S
HINCKLEY       MOCLDY    59  55  88 CALM      29.80S
CLOQUET        CLOUDY    64  48  55 E8G17     29.80S
MCGREGOR       CLOUDY    64  52  63 E5        29.81S
$$
MNZ071>073-080-081-089-090-097-098-262300-
   Southwest Minnesota

CITY           SKY/WX    TMP DP  RH WIND       PRES   REMARKS
MONTEVIDEO     CLOUDY    68  57  68 CALM      29.82S
GRANITE FALLS  CLOUDY    63  55  75 CALM      29.83S
CANBY          CLOUDY    67  54  61 N8        29.83S
MARSHALL       CLOUDY    63  52  67 NE3       29.81F
REDWOOD FALLS  CLOUDY    59  56  89 NW3       29.80F
OLIVIA         CLOUDY    59  52  77 N6        29.80F
PIPESTONE      CLOUDY    63  55  77 N7        29.84S
WINDOM         LGT RAIN  57  55  94 N9        29.82S
WORTHINGTON    CLOUDY    57  52  82 N9        29.83S
JACKSON        DRIZZLE   59  55  88 NW12      29.83R
TRACY          CLOUDY    60  56  88 N3        29.83S
SLAYTON        CLOUDY    59  56  89 CALM      29.83F
$$
MNZ065>067-074>077-082>085-091>093-262300-
   South Central Minnesota

CITY           SKY/WX    TMP DP  RH WIND       PRES   REMARKS
MANKATO        CLOUDY    57  55  94 N10       29.79S
NEW ULM        RAIN      57  57 100 NW6       29.80S
ST JAMES       RAIN      59  57  94 NW7       29.81S
FAIRMONT       CLOUDY    59  54  82 NW12      29.80R
GLENCOE        LGT RAIN  58  58  99 CALM      29.79S
FARIBAULT      LGT RAIN  59  57  94 NW7       29.78R
OWATONNA       DRIZZLE   61  57  88 NW12      29.77S
WASECA         DRIZZLE   59  55  88 NW10      29.79R
ALBERT LEA     CLOUDY    63  59  88 NW9       29.77S
$$
MNZ078>079-086>088-094>096-262300-
   Southeast Minnesota

CITY           SKY/WX    TMP DP  RH WIND       PRES   REMARKS
ROCHESTER      LGT RAIN  63  60  90 NW17      29.75S
RED WING       RAIN      61  59  94 NW7       29.73S
STANTON        LGT RAIN  61  58  90 N12       29.75S
DODGE CENTER   LGT RAIN  63  61  94 NW13G18   29.76R
WINONA         RAIN      61  61 100 NW14      29.69R
AUSTIN         DRIZZLE   63  57  82 W6        29.75S
PRESTON        CLOUDY    62  59  88 NW13G18   29.73S
$$
ABBREVIATIONS USED IN REMARKS
   TC - TEMPERATURES IN CELSIUS
  WCI - WIND CHILL INDEX
   HX - HEAT INDEX
  VSB - VISIBILITY
$$


USA.gov is the U.S. government's official web portal to all federal, state and local government web resources and services.